Time,TemperatureF,DewpointF,PressureIn,WindDirection,WindDirectionDegrees,WindSpeedMPH,WindSpeedGustMPH,Humidity,HourlyPrecipIn,Conditions,Clouds,dailyrainin,SoftwareType,DateUTC
2013-04-26 00:01:00,41.6,41.6,30.26,WSW,245,2.5,2.5,100,0.00,,CLR,0.00,VWS V14.01,2013-04-26 04:01:00,
2013-04-26 00:03:00,41.6,41.6,30.26,WSW,245,2.5,2.5,100,0.00,,CLR,0.00,VWS V14.01,2013-04-26 04:03:00,
2013-04-26 00:07:00,41.0,41.0,30.26,WSW,245,2.5,2.5,100,0.00,,CLR,0.00,VWS V14.01,2013-04-26 04:07:00,
2013-04-26 00:09:00,41.0,41.0,30.26,WSW,245,2.5,2.5,100,0.00,,CLR,0.00,VWS V14.01,2013-04-26 04:09:00,
2013-04-26 00:15:00,40.6,40.6,30.26,WSW,245,2.5,2.5,100,0.00,,CLR,0.00,VWS V14.01,2013-04-26 04:15:00,
2013-04-26 00:21:00,40.6,40.6,30.26,WSW,245,2.5,2.5,100,0.00,,CLR,0.00,VWS V14.01,2013-04-26 04:21:00,
2013-04-26 00:27:00,40.2,40.2,30.26,WSW,245,2.5,2.5,100,0.00,,CLR,0.00,VWS V14.01,2013-04-26 04:27:00,
2013-04-26 00:33:00,40.1,40.1,30.26,WSW,245,2.5,2.5,100,0.00,,CLR,0.00,VWS V14.01,2013-04-26 04:33:00,
2013-04-26 00:37:00,40.0,40.0,30.26,WSW,245,2.5,2.5,100,0.00,,CLR,0.00,VWS V14.01,2013-04-26 04:37:00,
2013-04-26 00:43:00,39.7,39.7,30.27,WSW,245,2.5,2.5,100,0.00,,CLR,0.00,VWS V14.01,2013-04-26 04:43:00,
2013-04-26 00:49:00,39.4,39.4,30.27,WSW,245,2.5,2.5,100,0.00,,CLR,0.00,VWS V14.01,2013-04-26 04:49:00,
2013-04-26 00:55:00,39.8,39.8,30.27,WSW,245,2.5,2.5,100,0.00,,CLR,0.00,VWS V14.01,2013-04-26 04:55:00,
2013-04-26 01:01:00,39.9,39.9,30.28,WSW,245,2.5,2.5,100,0.00,,CLR,0.00,VWS V14.01,2013-04-26 05:01:00,
2013-04-26 01:07:00,40.0,40.0,30.27,WSW,245,2.5,2.5,100,0.00,,CLR,0.00,VWS V14.01,2013-04-26 05:07:00,
2013-04-26 01:13:00,39.7,39.7,30.28,WSW,245,2.5,2.5,100,0.00,,CLR,0.00,VWS V14.01,2013-04-26 05:13:00,
2013-04-26 01:19:00,39.4,39.4,30.28,WSW,245,2.5,2.5,100,0.00,,CLR,0.00,VWS V14.01,2013-04-26 05:19:00,
2013-04-26 01:25:00,39.6,39.6,30.28,WSW,245,2.5,2.5,100,0.00,,CLR,0.00,VWS V14.01,2013-04-26 05:25:00,
2013-04-26 01:31:00,39.9,39.9,30.28,WSW,245,2.5,2.5,100,0.00,,CLR,0.00,VWS V14.01,2013-04-26 05:31:00,
2013-04-26 01:37:00,40.1,40.1,30.28,WSW,245,2.5,2.5,100,0.00,,CLR,0.00,VWS V14.01,2013-04-26 05:37:00,
2013-04-26 01:43:00,40.2,40.2,30.28,WSW,245,2.5,2.5,100,0.00,,CLR,0.00,VWS V14.01,2013-04-26 05:43:00,
2013-04-26 01:49:00,40.2,40.2,30.28,WSW,245,2.5,2.5,100,0.00,,CLR,0.00,VWS V14.01,2013-04-26 05:49:00,
2013-04-26 01:55:00,40.1,40.1,30.28,WSW,245,2.5,2.5,100,0.00,,CLR,0.00,VWS V14.01,2013-04-26 05:55:00,
2013-04-26 02:01:00,40.1,40.1,30.28,WSW,245,2.5,2.5,100,0.00,,CLR,0.00,VWS V14.01,2013-04-26 06:01:00,
2013-04-26 02:07:00,40.4,40.4,30.28,WSW,245,2.5,2.5,100,0.00,,CLR,0.00,VWS V14.01,2013-04-26 06:07:00,
2013-04-26 02:13:00,40.2,40.2,30.28,WSW,245,2.5,2.5,100,0.00,,CLR,0.00,VWS V14.01,2013-04-26 06:13:00,
2013-04-26 02:19:00,40.0,40.0,30.28,WSW,245,2.5,2.5,100,0.00,,CLR,0.00,VWS V14.01,2013-04-26 06:19:00,
2013-04-26 02:25:00,40.2,40.2,30.28,WSW,245,2.5,2.5,100,0.00,,CLR,0.00,VWS V14.01,2013-04-26 06:25:00,
2013-04-26 02:31:00,40.5,40.5,30.28,North,7,2.5,3.8,100,0.00,,CLR,0.00,VWS V14.01,2013-04-26 06:31:00,
2013-04-26 02:37:00,41.4,41.4,30.28,NE,42,4.3,5.2,100,0.00,,CLR,0.00,VWS V14.01,2013-04-26 06:37:00,
2013-04-26 02:43:00,42.0,42.0,30.28,North,359,7.8,7.8,100,0.00,,CLR,0.00,VWS V14.01,2013-04-26 06:43:00,
2013-04-26 02:49:00,42.5,42.5,30.28,NNE,13,2.5,4.4,100,0.00,,CLR,0.00,VWS V14.01,2013-04-26 06:49:00,
2013-04-26 02:55:00,42.4,42.4,30.29,NNE,17,2.5,3.4,100,0.00,,CLR,0.00,VWS V14.01,2013-04-26 06:55:00,
2013-04-26 03:01:00,42.7,42.7,30.29,NE,45,5.0,5.1,100,0.00,,CLR,0.00,VWS V14.01,2013-04-26 07:01:00,
2013-04-26 03:07:00,43.0,43.0,30.29,North,6,3.6,4.6,100,0.00,,CLR,0.00,VWS V14.01,2013-04-26 07:07:00,
2013-04-26 03:13:00,43.0,43.0,30.29,ENE,77,2.5,6.0,100,0.00,,CLR,0.00,VWS V14.01,2013-04-26 07:13:00,
2013-04-26 03:19:00,43.8,43.8,30.29,NE,44,5.7,6.6,100,0.00,,CLR,0.00,VWS V14.01,2013-04-26 07:19:00,
2013-04-26 03:25:00,44.0,44.0,30.30,ENE,73,2.5,5.4,100,0.00,,CLR,0.00,VWS V14.01,2013-04-26 07:25:00,
2013-04-26 03:31:00,43.7,43.7,30.30,NNE,31,2.5,3.6,100,0.00,,CLR,0.00,VWS V14.01,2013-04-26 07:31:00,
2013-04-26 03:37:00,43.4,43.4,30.30,NE,38,2.5,4.5,100,0.00,,CLR,0.00,VWS V14.01,2013-04-26 07:37:00,
2013-04-26 03:43:00,43.7,43.7,30.30,NNE,25,5.4,5.4,100,0.00,,CLR,0.00,VWS V14.01,2013-04-26 07:43:00,
2013-04-26 03:49:00,44.1,44.1,30.30,NNE,25,4.4,5.3,100,0.00,,CLR,0.00,VWS V14.01,2013-04-26 07:49:00,
2013-04-26 03:55:00,44.5,44.5,30.31,ENE,59,4.2,6.7,100,0.00,,CLR,0.00,VWS V14.01,2013-04-26 07:55:00,
2013-04-26 04:01:00,44.7,44.7,30.31,NE,45,4.3,5.6,100,0.00,,CLR,0.00,VWS V14.01,2013-04-26 08:01:00,
2013-04-26 04:07:00,44.4,44.4,30.31,NNE,31,6.4,6.4,100,0.00,,CLR,0.00,VWS V14.01,2013-04-26 08:07:00,
2013-04-26 04:13:00,44.4,44.4,30.31,NE,49,2.5,4.6,100,0.00,,CLR,0.00,VWS V14.01,2013-04-26 08:13:00,
2013-04-26 04:19:00,44.0,44.0,30.31,East,100,4.6,5.0,100,0.00,,CLR,0.00,VWS V14.01,2013-04-26 08:19:00,
2013-04-26 04:25:00,44.0,44.0,30.31,NNE,25,5.8,6.4,100,0.00,,CLR,0.00,VWS V14.01,2013-04-26 08:25:00,
2013-04-26 04:31:00,43.8,43.8,30.32,North,352,6.2,6.6,100,0.00,,CLR,0.00,VWS V14.01,2013-04-26 08:31:00,
2013-04-26 04:37:00,43.8,43.8,30.32,NE,48,2.5,7.5,100,0.00,,CLR,0.00,VWS V14.01,2013-04-26 08:37:00,
2013-04-26 04:43:00,43.9,43.9,30.32,ESE,118,2.5,5.6,100,0.00,,CLR,0.00,VWS V14.01,2013-04-26 08:43:00,
2013-04-26 04:49:00,43.7,43.7,30.32,ENE,73,3.6,4.7,100,0.00,,CLR,0.00,VWS V14.01,2013-04-26 08:49:00,
2013-04-26 04:55:00,43.5,43.5,30.32,NE,44,2.5,4.3,100,0.00,,CLR,0.00,VWS V14.01,2013-04-26 08:55:00,
2013-04-26 05:01:00,42.8,42.8,30.32,NE,44,2.5,2.5,100,0.00,,CLR,0.00,VWS V14.01,2013-04-26 09:01:00,
2013-04-26 05:07:00,42.6,42.6,30.32,NE,44,2.5,2.5,100,0.00,,CLR,0.00,VWS V14.01,2013-04-26 09:07:00,
2013-04-26 05:13:00,42.5,42.5,30.33,NE,44,2.5,2.5,100,0.00,,CLR,0.00,VWS V14.01,2013-04-26 09:13:00,
2013-04-26 05:19:00,42.9,42.9,30.33,ENE,59,2.5,6.2,100,0.00,,CLR,0.00,VWS V14.01,2013-04-26 09:19:00,
2013-04-26 05:25:00,42.6,42.6,30.33,NW,315,2.5,2.5,100,0.00,,CLR,0.00,VWS V14.01,2013-04-26 09:25:00,
2013-04-26 05:31:00,42.7,42.7,30.33,NW,315,2.5,2.5,100,0.00,,CLR,0.00,VWS V14.01,2013-04-26 09:31:00,
2013-04-26 05:37:00,42.3,42.3,30.34,NW,315,2.5,2.5,100,0.00,,CLR,0.00,VWS V14.01,2013-04-26 09:37:00,
2013-04-26 05:43:00,42.1,42.1,30.34,NW,315,2.5,2.5,100,0.00,,CLR,0.00,VWS V14.01,2013-04-26 09:43:00,
2013-04-26 05:49:00,42.3,42.3,30.34,NW,315,2.5,2.5,100,0.00,,CLR,0.00,VWS V14.01,2013-04-26 09:49:00,
2013-04-26 05:55:00,42.3,42.3,30.34,East,84,2.5,2.5,100,0.00,,CLR,0.00,VWS V14.01,2013-04-26 09:55:00,
2013-04-26 06:01:00,43.1,43.1,30.35,ESE,105,3.6,8.0,100,0.00,,SCT230,0.00,VWS V14.01,2013-04-26 10:01:00,
2013-04-26 06:07:00,43.6,43.6,30.35,ESE,104,2.5,6.0,100,0.00,,SCT230,0.00,VWS V14.01,2013-04-26 10:07:00,
2013-04-26 06:13:00,44.2,44.2,30.35,SE,141,6.4,8.8,100,0.00,,SCT230,0.00,VWS V14.01,2013-04-26 10:13:00,
2013-04-26 06:19:00,44.8,44.8,30.35,SE,124,8.0,8.5,100,0.00,,SCT230,0.00,VWS V14.01,2013-04-26 10:19:00,
2013-04-26 06:25:00,45.3,45.0,30.35,South,176,7.6,7.6,99,0.00,,SCT230,0.00,VWS V14.01,2013-04-26 10:25:00,
2013-04-26 06:31:00,45.7,45.1,30.36,SSE,162,8.7,10.0,98,0.00,,SCT230,0.00,VWS V14.01,2013-04-26 10:31:00,
2013-04-26 06:37:00,45.9,45.2,30.36,ESE,117,6.2,12.3,97,0.00,,SCT230,0.00,VWS V14.01,2013-04-26 10:37:00,
2013-04-26 06:43:00,45.8,45.0,30.36,South,188,5.9,11.9,97,0.00,,SCT230,0.00,VWS V14.01,2013-04-26 10:43:00,
2013-04-26 06:49:00,45.6,44.4,30.36,ESE,112,3.5,8.7,96,0.00,,SCT230,0.00,VWS V14.01,2013-04-26 10:49:00,
2013-04-26 06:55:00,45.8,44.5,30.36,South,179,5.4,11.3,95,0.00,,SCT230,0.00,VWS V14.01,2013-04-26 10:55:00,
2013-04-26 07:01:00,46.1,44.2,30.37,ESE,115,6.3,7.7,93,0.00,,FEW250,0.00,VWS V14.01,2013-04-26 11:01:00,
2013-04-26 07:07:00,46.5,44.1,30.37,South,179,6.7,8.9,91,0.00,,FEW250,0.00,VWS V14.01,2013-04-26 11:07:00,
2013-04-26 07:13:00,46.9,44.3,30.37,SE,135,5.7,8.6,91,0.00,,FEW250,0.00,VWS V14.01,2013-04-26 11:13:00,
2013-04-26 07:19:00,47.5,44.9,30.37,ESE,114,2.5,5.7,90,0.00,,FEW250,0.00,VWS V14.01,2013-04-26 11:19:00,
2013-04-26 07:25:00,47.6,44.8,30.37,South,176,8.5,10.4,90,0.00,,FEW250,0.00,VWS V14.01,2013-04-26 11:25:00,
2013-04-26 07:31:00,47.8,45.0,30.38,SSE,153,4.6,8.4,90,0.00,,FEW250,0.00,VWS V14.01,2013-04-26 11:31:00,
2013-04-26 07:37:00,48.0,44.7,30.38,SE,136,8.8,9.5,88,0.00,,FEW250,0.00,VWS V14.01,2013-04-26 11:37:00,
2013-04-26 07:43:00,49.1,45.5,30.38,South,173,8.2,9.5,87,0.00,,FEW250,0.00,VWS V14.01,2013-04-26 11:43:00,
2013-04-26 07:49:00,50.1,46.1,30.38,ENE,62,3.7,5.9,86,0.00,,FEW250,0.00,VWS V14.01,2013-04-26 11:49:00,
2013-04-26 07:55:00,50.0,46.0,30.38,East,100,5.4,6.2,86,0.00,,FEW250,0.00,VWS V14.01,2013-04-26 11:55:00,
2013-04-26 08:01:00,51.0,46.1,30.38,East,84,3.9,6.9,83,0.00,,FEW250,0.00,VWS V14.01,2013-04-26 12:01:00,
2013-04-26 08:07:00,51.8,45.3,30.38,SSE,153,4.9,9.1,78,0.00,,FEW250,0.00,VWS V14.01,2013-04-26 12:07:00,
2013-04-26 08:13:00,52.1,45.6,30.39,SE,124,6.6,8.0,78,0.00,,FEW250,0.00,VWS V14.01,2013-04-26 12:13:00,
2013-04-26 08:19:00,52.9,46.0,30.39,South,179,6.7,9.7,77,0.00,,FEW250,0.00,VWS V14.01,2013-04-26 12:19:00,
2013-04-26 08:25:00,53.4,46.0,30.39,East,100,4.2,7.4,76,0.00,,FEW250,0.00,VWS V14.01,2013-04-26 12:25:00,
2013-04-26 08:31:00,53.8,45.7,30.39,ENE,73,7.7,9.2,74,0.00,,FEW250,0.00,VWS V14.01,2013-04-26 12:31:00,
2013-04-26 08:37:00,53.4,44.9,30.39,South,191,7.6,9.7,73,0.00,,FEW250,0.00,VWS V14.01,2013-04-26 12:37:00,
2013-04-26 08:43:00,54.6,45.7,30.39,ESE,105,4.5,9.5,72,0.00,,FEW250,0.00,VWS V14.01,2013-04-26 12:43:00,
2013-04-26 08:49:00,54.0,45.6,30.39,SE,141,5.5,10.8,73,0.00,,FEW250,0.00,VWS V14.01,2013-04-26 12:49:00,
2013-04-26 08:55:00,54.9,45.3,30.39,South,174,11.9,11.9,70,0.00,,FEW250,0.00,VWS V14.01,2013-04-26 12:55:00,
2013-04-26 09:01:00,54.6,44.5,30.39,ESE,122,2.5,13.1,69,0.00,,FEW250,0.00,VWS V14.01,2013-04-26 13:01:00,
2013-04-26 09:07:00,56.0,44.9,30.39,NE,37,6.0,10.0,66,0.00,,FEW250,0.00,VWS V14.01,2013-04-26 13:07:00,
2013-04-26 09:13:00,53.6,43.2,30.39,SE,128,3.4,10.4,68,0.00,,FEW250,0.00,VWS V14.01,2013-04-26 13:13:00,
2013-04-26 09:19:00,55.1,44.3,30.40,East,83,4.6,9.1,67,0.00,,FEW250,0.00,VWS V14.01,2013-04-26 13:19:00,
2013-04-26 09:25:00,53.2,44.5,30.40,East,94,5.8,6.3,72,0.00,,FEW250,0.00,VWS V14.01,2013-04-26 13:25:00,
2013-04-26 09:31:00,56.2,43.9,30.40,ESE,104,6.6,7.4,63,0.00,,FEW250,0.00,VWS V14.01,2013-04-26 13:31:00,
2013-04-26 09:37:00,58.3,40.7,30.40,South,172,8.7,10.6,52,0.00,,FEW250,0.00,VWS V14.01,2013-04-26 13:37:00,
2013-04-26 09:43:00,58.0,44.0,30.40,East,98,10.1,10.1,60,0.00,,FEW250,0.00,VWS V14.01,2013-04-26 13:43:00,
2013-04-26 09:49:00,58.0,42.0,30.41,East,91,6.5,11.6,55,0.00,,FEW250,0.00,VWS V14.01,2013-04-26 13:49:00,
2013-04-26 09:55:00,58.2,42.1,30.41,South,174,10.0,11.0,55,0.00,,FEW250,0.00,VWS V14.01,2013-04-26 13:55:00,
2013-04-26 10:01:00,59.1,41.9,30.41,South,179,6.5,9.8,53,0.00,,CLR,0.00,VWS V14.01,2013-04-26 14:01:00,
2013-04-26 10:07:00,59.1,42.0,30.41,ENE,59,5.9,10.3,53,0.00,,CLR,0.00,VWS V14.01,2013-04-26 14:07:00,
2013-04-26 10:13:00,57.7,43.1,30.41,ESE,111,5.2,7.0,58,0.00,,CLR,0.00,VWS V14.01,2013-04-26 14:13:00,
2013-04-26 10:19:00,59.5,42.3,30.41,ENE,72,2.7,9.6,53,0.00,,CLR,0.00,VWS V14.01,2013-04-26 14:19:00,
2013-04-26 10:25:00,59.5,41.9,30.41,SSE,162,8.7,13.8,52,0.00,,CLR,0.00,VWS V14.01,2013-04-26 14:25:00,
2013-04-26 10:31:00,59.5,41.3,30.41,South,184,11.6,12.2,51,0.00,,CLR,0.00,VWS V14.01,2013-04-26 14:31:00,
2013-04-26 10:37:00,57.8,40.4,30.41,NE,39,6.7,8.5,52,0.00,,CLR,0.00,VWS V14.01,2013-04-26 14:37:00,
2013-04-26 10:43:00,58.4,41.5,30.41,SE,146,5.4,11.5,53,0.00,,CLR,0.00,VWS V14.01,2013-04-26 14:43:00,
2013-04-26 10:49:00,61.1,42.1,30.41,SSW,198,5.3,9.3,50,0.00,,CLR,0.00,VWS V14.01,2013-04-26 14:49:00,
2013-04-26 10:55:00,60.0,40.8,30.42,SE,143,6.4,13.6,49,0.00,,CLR,0.00,VWS V14.01,2013-04-26 14:55:00,
2013-04-26 11:01:00,59.5,42.4,30.42,ESE,118,3.9,11.3,53,0.00,,CLR,0.00,VWS V14.01,2013-04-26 15:01:00,
2013-04-26 11:07:00,58.8,41.2,30.42,ESE,104,3.9,7.6,52,0.00,,CLR,0.00,VWS V14.01,2013-04-26 15:07:00,
2013-04-26 11:13:00,57.0,44.5,30.42,South,184,7.9,11.9,63,0.00,,CLR,0.00,VWS V14.01,2013-04-26 15:13:00,
2013-04-26 11:19:00,59.4,42.4,30.41,SE,124,4.4,8.7,53,0.00,,CLR,0.00,VWS V14.01,2013-04-26 15:19:00,
2013-04-26 11:25:00,59.5,41.8,30.41,ESE,108,5.8,10.2,52,0.00,,CLR,0.00,VWS V14.01,2013-04-26 15:25:00,
2013-04-26 11:31:00,60.5,41.3,30.41,East,90,5.4,7.0,49,0.00,,CLR,0.00,VWS V14.01,2013-04-26 15:31:00,
2013-04-26 11:37:00,58.5,40.4,30.42,ESE,120,6.5,8.5,51,0.00,,CLR,0.00,VWS V14.01,2013-04-26 15:37:00,
2013-04-26 11:43:00,60.8,42.7,30.42,SSE,160,7.8,12.4,51,0.00,,CLR,0.00,VWS V14.01,2013-04-26 15:43:00,
2013-04-26 11:49:00,58.8,40.9,30.42,North,6,3.9,8.3,51,0.00,,CLR,0.00,VWS V14.01,2013-04-26 15:49:00,
2013-04-26 11:55:00,59.5,42.3,30.41,NE,46,4.9,9.2,53,0.00,,CLR,0.00,VWS V14.01,2013-04-26 15:55:00,
2013-04-26 12:01:00,59.6,42.3,30.41,East,101,4.1,9.0,53,0.00,,FEW030,0.00,VWS V14.01,2013-04-26 16:01:00,
2013-04-26 12:07:00,61.4,40.3,30.41,ENE,66,7.3,8.8,46,0.00,,FEW030,0.00,VWS V14.01,2013-04-26 16:07:00,
2013-04-26 12:13:00,61.3,39.9,30.41,ENE,70,6.6,8.6,45,0.00,,FEW030,0.00,VWS V14.01,2013-04-26 16:13:00,
2013-04-26 12:19:00,57.8,44.0,30.41,East,98,7.3,13.2,60,0.00,,FEW030,0.00,VWS V14.01,2013-04-26 16:19:00,
2013-04-26 12:25:00,57.6,41.4,30.41,NNE,14,4.2,10.5,55,0.00,,FEW030,0.00,VWS V14.01,2013-04-26 16:25:00,
2013-04-26 12:31:00,61.5,42.5,30.41,South,188,5.5,10.1,50,0.00,,FEW030,0.00,VWS V14.01,2013-04-26 16:31:00,
2013-04-26 12:37:00,58.8,40.3,30.41,East,96,6.9,8.4,50,0.00,,FEW030,0.00,VWS V14.01,2013-04-26 16:37:00,
2013-04-26 12:43:00,58.0,41.4,30.41,ESE,103,4.1,9.0,54,0.00,,FEW030,0.00,VWS V14.01,2013-04-26 16:43:00,
2013-04-26 12:49:00,60.9,42.0,30.41,SSE,167,4.7,8.1,50,0.00,,FEW030,0.00,VWS V14.01,2013-04-26 16:49:00,
2013-04-26 12:55:00,60.4,44.3,30.41,SE,146,7.9,10.0,55,0.00,,FEW030,0.00,VWS V14.01,2013-04-26 16:55:00,
2013-04-26 13:01:00,63.5,44.7,30.40,SE,142,6.8,10.6,50,0.00,,FEW035,0.00,VWS V14.01,2013-04-26 17:01:00,
2013-04-26 13:07:00,60.6,41.6,30.40,SSE,159,9.1,12.5,50,0.00,,FEW035,0.00,VWS V14.01,2013-04-26 17:07:00,
2013-04-26 13:13:00,59.8,43.1,30.40,ESE,107,4.1,7.7,54,0.00,,FEW035,0.00,VWS V14.01,2013-04-26 17:13:00,
2013-04-26 13:19:00,63.1,39.7,30.40,SE,125,7.7,8.1,42,0.00,,FEW035,0.00,VWS V14.01,2013-04-26 17:19:00,
2013-04-26 13:25:00,61.4,41.4,30.40,East,90,8.1,9.5,48,0.00,,FEW035,0.00,VWS V14.01,2013-04-26 17:25:00,
2013-04-26 13:31:00,60.9,40.1,30.40,ESE,105,4.9,10.9,46,0.00,,FEW035,0.00,VWS V14.01,2013-04-26 17:31:00,
2013-04-26 13:37:00,62.8,41.7,30.40,ESE,122,6.7,9.1,46,0.00,,FEW035,0.00,VWS V14.01,2013-04-26 17:37:00,
2013-04-26 13:43:00,60.6,42.0,30.40,SE,145,8.4,10.1,50,0.00,,FEW035,0.00,VWS V14.01,2013-04-26 17:43:00,
2013-04-26 13:49:00,62.5,40.8,30.39,ESE,117,6.5,9.6,45,0.00,,FEW035,0.00,VWS V14.01,2013-04-26 17:49:00,
2013-04-26 13:55:00,60.7,40.6,30.39,East,101,3.8,9.0,47,0.00,,FEW035,0.00,VWS V14.01,2013-04-26 17:55:00,
2013-04-26 14:01:00,58.6,40.5,30.39,ESE,117,6.5,11.1,51,0.00,,FEW040,0.00,VWS V14.01,2013-04-26 18:01:00,
2013-04-26 14:07:00,58.2,41.9,30.39,East,100,7.4,11.0,54,0.00,,FEW040,0.00,VWS V14.01,2013-04-26 18:07:00,
2013-04-26 14:13:00,57.1,41.1,30.40,ESE,115,7.7,9.4,55,0.00,,FEW040,0.00,VWS V14.01,2013-04-26 18:13:00,
2013-04-26 14:19:00,59.1,38.1,30.39,SSE,160,2.9,6.5,46,0.00,,FEW040,0.00,VWS V14.01,2013-04-26 18:19:00,
2013-04-26 14:25:00,58.4,43.1,30.39,East,100,6.2,8.3,57,0.00,,FEW040,0.00,VWS V14.01,2013-04-26 18:25:00,
2013-04-26 14:31:00,59.4,41.7,30.40,ENE,77,2.9,10.1,52,0.00,,FEW040,0.00,VWS V14.01,2013-04-26 18:31:00,
2013-04-26 14:37:00,57.8,40.2,30.39,East,87,5.2,6.7,52,0.00,,FEW040,0.00,VWS V14.01,2013-04-26 18:37:00,
2013-04-26 14:43:00,58.4,41.3,30.39,South,188,5.3,12.6,53,0.00,,FEW040,0.00,VWS V14.01,2013-04-26 18:43:00,
2013-04-26 14:49:00,54.2,43.6,30.39,ESE,112,4.9,6.9,67,0.00,,FEW040,0.00,VWS V14.01,2013-04-26 18:49:00,
2013-04-26 14:55:00,53.4,45.0,30.39,East,89,6.4,7.4,73,0.00,,FEW040,0.00,VWS V14.01,2013-04-26 18:55:00,
2013-04-26 15:01:00,54.6,44.6,30.39,NE,37,2.5,8.8,69,0.00,,FEW040,0.00,VWS V14.01,2013-04-26 19:01:00,
2013-04-26 15:07:00,59.7,42.5,30.39,SE,132,6.0,9.4,53,0.00,,FEW040,0.00,VWS V14.01,2013-04-26 19:07:00,
2013-04-26 15:13:00,57.7,42.8,30.39,SE,142,7.3,10.5,57,0.00,,FEW040,0.00,VWS V14.01,2013-04-26 19:13:00,
2013-04-26 15:19:00,57.7,43.0,30.39,SSE,162,7.0,8.5,58,0.00,,FEW040,0.00,VWS V14.01,2013-04-26 19:19:00,
2013-04-26 15:25:00,55.1,43.2,30.39,South,176,7.0,9.5,64,0.00,,FEW040,0.00,VWS V14.01,2013-04-26 19:25:00,
2013-04-26 15:31:00,55.1,44.0,30.39,ESE,114,3.3,7.2,66,0.00,,FEW040,0.00,VWS V14.01,2013-04-26 19:31:00,
2013-04-26 15:37:00,57.9,45.3,30.39,SE,138,6.2,6.5,63,0.00,,FEW040,0.00,VWS V14.01,2013-04-26 19:37:00,
2013-04-26 15:43:00,59.4,41.4,30.39,ENE,72,7.5,7.5,51,0.00,,FEW040,0.00,VWS V14.01,2013-04-26 19:43:00,
2013-04-26 15:49:00,57.0,44.3,30.39,NE,55,4.5,12.7,62,0.00,,FEW040,0.00,VWS V14.01,2013-04-26 19:49:00,
2013-04-26 15:55:00,55.3,45.2,30.39,ESE,108,6.4,8.0,69,0.00,,FEW040,0.00,VWS V14.01,2013-04-26 19:55:00,
2013-04-26 16:01:00,54.7,46.8,30.39,East,83,6.0,6.8,75,0.00,,SCT100,0.00,VWS V14.01,2013-04-26 20:01:00,
2013-04-26 16:07:00,56.7,43.0,30.39,ENE,60,2.7,9.3,60,0.00,,SCT100,0.00,VWS V14.01,2013-04-26 20:07:00,
2013-04-26 16:13:00,55.4,44.2,30.39,ENE,75,6.4,8.1,66,0.00,,SCT100,0.00,VWS V14.01,2013-04-26 20:13:00,
2013-04-26 16:19:00,54.2,46.1,30.39,South,180,8.9,9.5,74,0.00,,SCT100,0.00,VWS V14.01,2013-04-26 20:19:00,
2013-04-26 16:25:00,53.3,46.0,30.39,East,83,5.4,5.9,76,0.00,,SCT100,0.00,VWS V14.01,2013-04-26 20:25:00,
2013-04-26 16:31:00,51.7,45.8,30.39,ENE,77,4.4,8.9,80,0.00,,SCT100,0.00,VWS V14.01,2013-04-26 20:31:00,
2013-04-26 16:37:00,52.5,46.9,30.39,SE,132,6.4,8.2,81,0.00,,SCT100,0.00,VWS V14.01,2013-04-26 20:37:00,
2013-04-26 16:43:00,51.5,47.1,30.39,ESE,105,5.3,6.8,85,0.00,,SCT100,0.00,VWS V14.01,2013-04-26 20:43:00,
2013-04-26 16:49:00,52.4,46.6,30.39,East,100,4.4,6.8,81,0.00,,SCT100,0.00,VWS V14.01,2013-04-26 20:49:00,
2013-04-26 16:55:00,51.9,46.7,30.39,ESE,117,5.2,9.3,82,0.00,,SCT100,0.00,VWS V14.01,2013-04-26 20:55:00,
2013-04-26 17:01:00,52.4,47.0,30.39,SE,145,6.4,6.9,82,0.00,,SCT110,0.00,VWS V14.01,2013-04-26 21:01:00,
2013-04-26 17:07:00,53.1,46.9,30.39,SE,131,4.4,12.5,80,0.00,,SCT110,0.00,VWS V14.01,2013-04-26 21:07:00,
2013-04-26 17:13:00,52.9,47.8,30.39,South,173,4.0,11.0,83,0.00,,SCT110,0.00,VWS V14.01,2013-04-26 21:13:00,
2013-04-26 17:19:00,51.6,46.7,30.39,ENE,70,4.4,8.5,83,0.00,,SCT110,0.00,VWS V14.01,2013-04-26 21:19:00,
2013-04-26 17:25:00,50.6,47.0,30.39,East,93,6.4,7.8,87,0.00,,SCT110,0.00,VWS V14.01,2013-04-26 21:25:00,
2013-04-26 17:31:00,51.3,46.7,30.39,ESE,122,6.3,7.3,84,0.00,,SCT110,0.00,VWS V14.01,2013-04-26 21:31:00,
2013-04-26 17:37:00,52.1,47.4,30.39,ESE,114,5.4,8.0,84,0.00,,SCT110,0.00,VWS V14.01,2013-04-26 21:37:00,
2013-04-26 17:43:00,55.8,45.3,30.40,SE,139,3.6,7.2,68,0.00,,SCT110,0.00,VWS V14.01,2013-04-26 21:43:00,
2013-04-26 17:49:00,56.7,45.3,30.39,ESE,108,5.5,10.9,66,0.00,,SCT110,0.00,VWS V14.01,2013-04-26 21:49:00,
2013-04-26 17:55:00,55.3,45.5,30.40,South,169,7.2,11.6,70,0.00,,SCT110,0.00,VWS V14.01,2013-04-26 21:55:00,
2013-04-26 18:01:00,53.9,46.3,30.40,SSE,167,7.7,8.3,75,0.00,,BKN140,0.00,VWS V14.01,2013-04-26 22:01:00,
2013-04-26 18:07:00,54.1,45.2,30.40,East,93,4.4,6.3,72,0.00,,BKN140,0.00,VWS V14.01,2013-04-26 22:07:00,
2013-04-26 18:13:00,51.6,47.3,30.40,East,90,2.5,4.6,85,0.00,,BKN140,0.00,VWS V14.01,2013-04-26 22:13:00,
2013-04-26 18:19:00,51.1,46.9,30.40,SSE,156,3.7,7.7,85,0.00,,BKN140,0.00,VWS V14.01,2013-04-26 22:19:00,
2013-04-26 18:25:00,50.8,47.2,30.40,SSE,159,5.7,6.6,87,0.00,,BKN140,0.00,VWS V14.01,2013-04-26 22:25:00,
2013-04-26 18:31:00,49.5,48.1,30.40,South,186,4.4,7.6,95,0.00,,BKN140,0.00,VWS V14.01,2013-04-26 22:31:00,
2013-04-26 18:37:00,48.7,47.7,30.40,South,169,6.9,7.3,96,0.00,,BKN140,0.00,VWS V14.01,2013-04-26 22:37:00,
2013-04-26 18:43:00,48.1,47.6,30.41,East,97,5.7,6.8,98,0.00,,BKN140,0.00,VWS V14.01,2013-04-26 22:43:00,
2013-04-26 18:49:00,47.8,47.5,30.41,SE,135,6.0,7.5,99,0.00,,BKN140,0.00,VWS V14.01,2013-04-26 22:49:00,
2013-04-26 18:55:00,47.3,47.3,30.41,SE,141,5.8,8.2,100,0.00,,BKN140,0.00,VWS V14.01,2013-04-26 22:55:00,
2013-04-26 19:01:00,46.9,46.9,30.41,SE,141,4.5,7.2,100,0.00,,BKN150,0.00,VWS V14.01,2013-04-26 23:01:00,
2013-04-26 19:07:00,46.7,46.7,30.41,ENE,72,2.5,5.7,100,0.00,,BKN150,0.00,VWS V14.01,2013-04-26 23:07:00,
2013-04-26 19:13:00,46.1,46.1,30.41,South,174,7.9,9.6,100,0.00,,BKN150,0.00,VWS V14.01,2013-04-26 23:13:00,
2013-04-26 19:19:00,45.9,45.9,30.41,SE,128,4.1,6.1,100,0.00,,BKN150,0.00,VWS V14.01,2013-04-26 23:19:00,
2013-04-26 19:25:00,45.7,45.7,30.41,SE,138,2.5,2.5,100,0.00,,BKN150,0.00,VWS V14.01,2013-04-26 23:25:00,
2013-04-26 19:31:00,45.4,45.4,30.41,South,183,5.0,6.7,100,0.00,,BKN150,0.00,VWS V14.01,2013-04-26 23:31:00,
2013-04-26 19:37:00,45.1,45.1,30.41,SE,142,2.5,5.0,100,0.00,,BKN150,0.00,VWS V14.01,2013-04-26 23:37:00,
2013-04-26 19:43:00,44.8,44.8,30.41,SE,124,2.5,2.5,100,0.00,,BKN150,0.00,VWS V14.01,2013-04-26 23:43:00,
2013-04-26 19:49:00,44.4,44.4,30.42,SE,124,2.5,2.5,100,0.00,,BKN150,0.00,VWS V14.01,2013-04-26 23:49:00,
2013-04-26 20:07:00,44.7,44.7,30.42,SE,124,2.5,2.5,100,0.00,,SCT160,0.00,VWS V14.01,2013-04-27 00:07:00,
2013-04-26 20:13:00,44.5,44.5,30.42,SE,124,2.5,2.5,100,0.00,,SCT160,0.00,VWS V14.01,2013-04-27 00:13:00,
2013-04-26 20:19:00,44.6,44.6,30.42,SE,124,2.5,2.5,100,0.00,,SCT160,0.00,VWS V14.01,2013-04-27 00:19:00,
2013-04-26 20:25:00,44.7,44.7,30.42,SE,124,2.5,2.5,100,0.00,,SCT160,0.00,VWS V14.01,2013-04-27 00:25:00,
2013-04-26 20:31:00,44.5,44.5,30.42,SE,124,2.5,2.5,100,0.00,,SCT160,0.00,VWS V14.01,2013-04-27 00:31:00,
2013-04-26 20:37:00,44.4,44.4,30.42,SE,124,2.5,2.5,100,0.00,,SCT160,0.00,VWS V14.01,2013-04-27 00:37:00,
2013-04-26 20:43:00,43.8,43.8,30.42,SE,124,2.5,2.5,100,0.00,,SCT160,0.00,VWS V14.01,2013-04-27 00:43:00,
2013-04-26 20:49:00,43.8,43.8,30.42,SE,124,2.5,2.5,100,0.00,,SCT160,0.00,VWS V14.01,2013-04-27 00:49:00,
2013-04-26 20:55:00,43.5,43.5,30.42,SE,124,2.5,2.5,100,0.00,,SCT160,0.00,VWS V14.01,2013-04-27 00:55:00,
2013-04-26 21:01:00,42.9,42.9,30.43,SE,124,2.5,2.5,100,0.00,,BKN200,0.00,VWS V14.01,2013-04-27 01:01:00,
2013-04-26 21:07:00,42.7,42.7,30.43,SE,124,2.5,2.5,100,0.00,,BKN200,0.00,VWS V14.01,2013-04-27 01:07:00,
2013-04-26 21:13:00,42.6,42.6,30.42,SE,124,2.5,2.5,100,0.00,,BKN200,0.00,VWS V14.01,2013-04-27 01:13:00,
2013-04-26 21:19:00,42.7,42.7,30.43,SE,124,2.5,2.5,100,0.00,,BKN200,0.00,VWS V14.01,2013-04-27 01:19:00,
2013-04-26 21:25:00,42.9,42.9,30.43,SE,124,2.5,2.5,100,0.00,,BKN200,0.00,VWS V14.01,2013-04-27 01:25:00,
2013-04-26 21:31:00,42.5,42.5,30.43,SE,124,2.5,2.5,100,0.00,,BKN200,0.00,VWS V14.01,2013-04-27 01:31:00,
2013-04-26 21:37:00,42.4,42.4,30.42,SE,124,2.5,2.5,100,0.00,,BKN200,0.00,VWS V14.01,2013-04-27 01:37:00,
2013-04-26 21:43:00,42.2,42.2,30.42,SE,124,2.5,2.5,100,0.00,,BKN200,0.00,VWS V14.01,2013-04-27 01:43:00,
2013-04-26 21:49:00,42.1,42.1,30.42,SE,124,2.5,2.5,100,0.00,,BKN200,0.00,VWS V14.01,2013-04-27 01:49:00,
2013-04-26 21:55:00,41.9,41.9,30.42,SE,124,2.5,2.5,100,0.00,,BKN200,0.00,VWS V14.01,2013-04-27 01:55:00,
2013-04-26 22:01:00,41.7,41.7,30.43,SE,124,2.5,2.5,100,0.00,,BKN200,0.00,VWS V14.01,2013-04-27 02:01:00,
2013-04-26 22:07:00,41.4,41.4,30.43,SE,124,2.5,2.5,100,0.00,,BKN200,0.00,VWS V14.01,2013-04-27 02:07:00,
2013-04-26 22:13:00,41.5,41.5,30.43,SE,124,2.5,2.5,100,0.00,,BKN200,0.00,VWS V14.01,2013-04-27 02:13:00,
2013-04-26 22:19:00,41.1,41.1,30.42,SE,124,2.5,2.5,100,0.00,,BKN200,0.00,VWS V14.01,2013-04-27 02:19:00,
2013-04-26 22:25:00,41.6,41.6,30.42,SE,124,2.5,2.5,100,0.00,,BKN200,0.00,VWS V14.01,2013-04-27 02:25:00,
2013-04-26 22:31:00,41.4,41.4,30.42,SE,124,2.5,2.5,100,0.00,,BKN200,0.00,VWS V14.01,2013-04-27 02:31:00,
2013-04-26 22:37:00,41.3,41.3,30.42,SE,124,2.5,2.5,100,0.00,,BKN200,0.00,VWS V14.01,2013-04-27 02:37:00,
2013-04-26 22:43:00,41.2,41.2,30.42,SE,124,2.5,2.5,100,0.00,,BKN200,0.00,VWS V14.01,2013-04-27 02:43:00,
2013-04-26 22:49:00,40.8,40.8,30.42,SE,124,2.5,2.5,100,0.00,,BKN200,0.00,VWS V14.01,2013-04-27 02:49:00,
2013-04-26 22:55:00,41.0,41.0,30.42,SE,124,2.5,2.5,100,0.00,,BKN200,0.00,VWS V14.01,2013-04-27 02:55:00,
2013-04-26 23:01:00,41.0,41.0,30.42,SE,124,2.5,2.5,100,0.00,,BKN080,0.00,VWS V14.01,2013-04-27 03:01:00,
2013-04-26 23:07:00,41.3,41.3,30.42,SE,124,2.5,2.5,100,0.00,,BKN080,0.00,VWS V14.01,2013-04-27 03:07:00,
2013-04-26 23:13:00,40.5,40.5,30.42,SE,124,2.5,2.5,100,0.00,,BKN080,0.00,VWS V14.01,2013-04-27 03:13:00,
2013-04-26 23:19:00,40.7,40.7,30.42,SE,124,2.5,2.5,100,0.00,,BKN080,0.00,VWS V14.01,2013-04-27 03:19:00,
2013-04-26 23:25:00,40.6,40.6,30.42,SE,124,2.5,2.5,100,0.00,,BKN080,0.00,VWS V14.01,2013-04-27 03:25:00,
2013-04-26 23:31:00,40.9,40.9,30.43,SE,124,2.5,2.5,100,0.00,,BKN080,0.00,VWS V14.01,2013-04-27 03:31:00,
2013-04-26 23:37:00,41.4,41.4,30.42,SE,124,2.5,2.5,100,0.00,,BKN080,0.00,VWS V14.01,2013-04-27 03:37:00,
2013-04-26 23:43:00,41.9,41.9,30.43,SE,124,2.5,2.5,100,0.00,,BKN080,0.00,VWS V14.01,2013-04-27 03:43:00,
2013-04-26 23:49:00,42.1,42.1,30.42,SE,124,2.5,2.5,100,0.00,,BKN080,0.00,VWS V14.01,2013-04-27 03:49:00,
2013-04-26 23:55:00,42.1,42.1,30.42,SE,124,2.5,2.5,100,0.00,,BKN080,0.00,VWS V14.01,2013-04-27 03:55:00,